Time,TemperatureF,DewpointF,PressureIn,WindDirection,WindDirectionDegrees,WindSpeedMPH,WindSpeedGustMPH,Humidity,HourlyPrecipIn,Conditions,Clouds,dailyrainin,SoftwareType,DateUTC
2013-04-09 00:00:00,55.6,44.8,29.89,NNE,22,0.0,0.0,67,0.00,BKN,,0.00,WeatherDisplay:10.37,2013-04-09 04:00:00,
2013-04-09 00:02:00,55.6,44.8,29.89,ENE,68,0.0,0.0,67,0.00,BKN,,0.00,WeatherDisplay:10.37,2013-04-09 04:02:00,
2013-04-09 00:07:00,55.4,44.6,29.88,ENE,68,0.0,0.0,67,0.00,BKN,,0.00,WeatherDisplay:10.37,2013-04-09 04:07:00,
2013-04-09 00:12:00,55.4,44.6,29.88,ENE,68,0.0,0.0,67,0.00,BKN,,0.00,WeatherDisplay:10.37,2013-04-09 04:12:00,
2013-04-09 00:17:00,55.4,44.6,29.88,ENE,68,0.0,0.1,67,0.00,BKN,,0.00,WeatherDisplay:10.37,2013-04-09 04:17:00,
2013-04-09 00:22:00,55.4,44.6,29.88,NE,45,0.0,0.0,67,0.00,BKN,,0.00,WeatherDisplay:10.37,2013-04-09 04:22:00,
2013-04-09 00:27:00,55.4,44.6,29.88,ENE,68,0.0,0.0,67,0.00,BKN,,0.00,WeatherDisplay:10.37,2013-04-09 04:27:00,
2013-04-09 00:32:00,55.2,44.8,29.88,North,0,1.1,1.1,68,0.00,BKN,,0.00,WeatherDisplay:10.37,2013-04-09 04:32:00,
2013-04-09 00:37:00,55.2,45.2,29.88,ENE,68,1.4,1.4,69,0.00,BKN,,0.00,WeatherDisplay:10.37,2013-04-09 04:37:00,
2013-04-09 00:42:00,55.0,45.1,29.88,ENE,68,0.0,0.5,69,0.00,BKN,,0.00,WeatherDisplay:10.37,2013-04-09 04:42:00,
2013-04-09 00:47:00,55.0,45.1,29.87,NE,45,1.1,1.1,69,0.00,BKN,,0.00,WeatherDisplay:10.37,2013-04-09 04:47:00,
2013-04-09 00:52:00,55.2,45.2,29.87,NNW,338,0.0,0.1,69,0.00,BKN,,0.00,WeatherDisplay:10.37,2013-04-09 04:52:00,
2013-04-09 00:57:00,55.2,45.2,29.87,NE,45,0.0,0.0,69,0.00,BKN,,0.00,WeatherDisplay:10.37,2013-04-09 04:57:00,
2013-04-09 01:02:00,55.2,45.2,29.87,NW,315,0.0,0.1,69,0.00,BKN,,0.00,WeatherDisplay:10.37,2013-04-09 05:02:00,
2013-04-09 01:08:00,55.0,45.1,29.88,ENE,68,0.0,0.2,69,0.00,BKN,,0.00,WeatherDisplay:10.37,2013-04-09 05:08:00,
2013-04-09 01:13:00,54.9,45.3,29.88,SW,225,1.1,1.1,70,0.00,BKN,,0.00,WeatherDisplay:10.37,2013-04-09 05:13:00,
2013-04-09 01:18:00,54.9,45.3,29.88,ENE,68,1.5,1.5,70,0.00,BKN,,0.00,WeatherDisplay:10.37,2013-04-09 05:18:00,
2013-04-09 01:23:00,54.9,45.3,29.88,NW,315,0.0,0.3,70,0.00,BKN,,0.00,WeatherDisplay:10.37,2013-04-09 05:23:00,
2013-04-09 01:28:00,54.9,45.3,29.83,South,180,1.1,1.1,70,0.00,BKN,,0.00,WeatherDisplay:10.37,2013-04-09 05:28:00,
2013-04-09 01:33:00,54.9,45.3,29.83,WSW,248,0.0,0.1,70,0.00,BKN,,0.00,WeatherDisplay:10.37,2013-04-09 05:33:00,
2013-04-09 01:38:00,54.9,45.3,29.83,NW,315,0.0,0.0,70,0.00,BKN,,0.00,WeatherDisplay:10.37,2013-04-09 05:38:00,
2013-04-09 01:43:00,54.9,45.3,29.83,North,0,0.0,0.0,70,0.00,BKN,,0.00,WeatherDisplay:10.37,2013-04-09 05:43:00,
2013-04-09 01:48:00,54.9,45.3,29.85,NW,315,0.0,0.0,70,0.00,BKN,,0.00,WeatherDisplay:10.37,2013-04-09 05:48:00,
2013-04-09 01:53:00,54.9,45.3,29.85,NW,315,0.0,0.0,70,0.00,BKN,,0.00,WeatherDisplay:10.37,2013-04-09 05:53:00,
2013-04-09 01:58:00,54.9,45.3,29.85,NW,315,0.0,0.0,70,0.00,BKN,,0.00,WeatherDisplay:10.37,2013-04-09 05:58:00,
2013-04-09 02:03:00,54.7,45.5,29.85,ENE,68,0.0,0.0,71,0.00,BKN,,0.00,WeatherDisplay:10.37,2013-04-09 06:03:00,
2013-04-09 02:08:00,54.7,45.5,29.81,NE,45,0.0,0.0,71,0.00,BKN,,0.00,WeatherDisplay:10.37,2013-04-09 06:08:00,
2013-04-09 02:13:00,54.7,45.8,29.81,ENE,68,1.1,0.0,72,0.00,BKN,,0.00,WeatherDisplay:10.37,2013-04-09 06:13:00,
2013-04-09 02:18:00,54.7,46.2,29.81,ENE,68,2.3,2.3,73,0.00,BKN,,0.00,WeatherDisplay:10.37,2013-04-09 06:18:00,
2013-04-09 02:23:00,54.5,46.0,29.81,NW,315,0.0,0.1,73,0.00,BKN,,0.00,WeatherDisplay:10.37,2013-04-09 06:23:00,
2013-04-09 02:29:00,54.5,46.0,29.84,NNE,22,0.0,0.0,73,0.00,BKN,,0.00,WeatherDisplay:10.37,2013-04-09 06:29:00,
2013-04-09 02:34:00,54.3,45.8,29.84,NW,315,2.3,2.3,73,0.00,BKN,,0.00,WeatherDisplay:10.37,2013-04-09 06:34:00,
2013-04-09 02:39:00,54.5,46.4,29.84,NW,315,3.5,3.5,74,0.00,BKN,,0.00,WeatherDisplay:10.37,2013-04-09 06:39:00,
2013-04-09 02:44:00,54.5,46.4,29.84,NNW,338,3.5,3.5,74,0.00,BKN,,0.00,WeatherDisplay:10.37,2013-04-09 06:44:00,
2013-04-09 02:49:00,54.1,46.0,29.83,ENE,68,3.5,3.5,74,0.00,BKN,,0.00,WeatherDisplay:10.37,2013-04-09 06:49:00,
2013-04-09 02:54:00,54.1,46.0,29.83,ESE,112,2.3,2.3,74,0.00,BKN,,0.00,WeatherDisplay:10.37,2013-04-09 06:54:00,
2013-04-09 02:59:00,54.0,45.9,29.83,ESE,112,0.0,0.6,74,0.00,BKN,,0.00,WeatherDisplay:10.37,2013-04-09 06:59:00,
2013-04-09 03:04:00,54.0,45.9,29.83,SSE,158,1.1,1.1,74,0.00,BKN,,0.00,WeatherDisplay:10.37,2013-04-09 07:04:00,
2013-04-09 03:09:00,54.1,46.0,29.82,SSE,158,1.1,1.1,74,0.00,BKN,,0.00,WeatherDisplay:10.37,2013-04-09 07:09:00,
2013-04-09 03:14:00,54.0,45.9,29.82,WNW,292,1.1,1.1,74,0.00,BKN,,0.00,WeatherDisplay:10.37,2013-04-09 07:14:00,
2013-04-09 03:20:00,53.8,45.7,29.82,NW,315,0.0,0.0,74,0.00,BKN,,0.00,WeatherDisplay:10.37,2013-04-09 07:20:00,
2013-04-09 03:25:00,53.8,45.7,29.82,West,270,0.0,0.0,74,0.00,BKN,,0.00,WeatherDisplay:10.37,2013-04-09 07:25:00,
2013-04-09 03:30:00,53.8,45.7,29.83,WNW,292,0.0,0.0,74,0.00,BKN,,0.00,WeatherDisplay:10.37,2013-04-09 07:30:00,
2013-04-09 03:35:00,53.6,45.5,29.83,NW,315,0.0,0.0,74,0.00,BKN,,0.00,WeatherDisplay:10.37,2013-04-09 07:35:00,
2013-04-09 03:40:00,53.4,45.3,29.83,NW,315,0.0,0.0,74,0.00,BKN,,0.00,WeatherDisplay:10.37,2013-04-09 07:40:00,
2013-04-09 03:45:00,53.4,45.7,29.83,NNE,22,0.0,0.0,75,0.00,BKN,,0.00,WeatherDisplay:10.37,2013-04-09 07:45:00,
2013-04-09 03:50:00,53.4,45.7,29.83,ESE,112,0.0,0.0,75,0.00,BKN,,0.00,WeatherDisplay:10.37,2013-04-09 07:50:00,
2013-04-09 03:55:00,53.4,45.7,29.83,WNW,292,0.0,0.0,75,0.00,BKN,,0.00,WeatherDisplay:10.37,2013-04-09 07:55:00,
2013-04-09 04:01:00,53.4,45.7,29.83,West,270,0.0,0.0,75,0.00,BKN,,0.00,WeatherDisplay:10.37,2013-04-09 08:01:00,
2013-04-09 04:06:00,53.4,45.7,29.83,SW,225,0.0,0.0,75,0.00,BKN,,0.00,WeatherDisplay:10.37,2013-04-09 08:06:00,
2013-04-09 04:12:00,53.4,46.0,29.83,SW,225,0.0,0.0,76,0.00,BKN,,0.00,WeatherDisplay:10.37,2013-04-09 08:12:00,
2013-04-09 04:17:00,53.4,45.7,29.83,NW,315,0.0,0.0,75,0.00,BKN,,0.00,WeatherDisplay:10.37,2013-04-09 08:17:00,
2013-04-09 04:22:00,53.4,46.0,29.83,SE,135,0.0,0.0,76,0.00,BKN,,0.00,WeatherDisplay:10.37,2013-04-09 08:22:00,
2013-04-09 04:27:00,53.4,46.0,29.83,SSE,158,0.0,0.0,76,0.00,BKN,,0.00,WeatherDisplay:10.37,2013-04-09 08:27:00,
2013-04-09 04:32:00,53.4,46.0,29.83,NNW,338,0.0,0.0,76,0.00,BKN,,0.00,WeatherDisplay:10.37,2013-04-09 08:32:00,
2013-04-09 04:37:00,53.2,45.9,29.83,WNW,292,0.0,0.0,76,0.00,BKN,,0.00,WeatherDisplay:10.37,2013-04-09 08:37:00,
2013-04-09 04:42:00,53.1,45.7,29.83,SW,225,0.0,0.0,76,0.00,BKN,,0.00,WeatherDisplay:10.37,2013-04-09 08:42:00,
2013-04-09 04:47:00,53.1,46.0,29.83,SW,225,0.0,0.0,77,0.00,BKN,,0.00,WeatherDisplay:10.37,2013-04-09 08:47:00,
2013-04-09 04:52:00,52.9,45.9,29.83,SSW,202,1.1,0.0,77,0.00,BKN,,0.00,WeatherDisplay:10.37,2013-04-09 08:52:00,
2013-04-09 04:57:00,53.1,46.0,29.83,SSW,202,0.0,0.2,77,0.00,BKN,,0.00,WeatherDisplay:10.37,2013-04-09 08:57:00,
2013-04-09 05:02:00,53.1,46.0,29.83,WSW,248,0.0,0.2,77,0.00,BKN,,0.00,WeatherDisplay:10.37,2013-04-09 09:02:00,
2013-04-09 05:07:00,52.7,45.7,29.80,WSW,248,0.0,0.1,77,0.00,BKN,,0.00,WeatherDisplay:10.37,2013-04-09 09:07:00,
2013-04-09 05:12:00,52.7,45.7,29.80,WSW,248,0.0,0.1,77,0.00,BKN,,0.00,WeatherDisplay:10.37,2013-04-09 09:12:00,
2013-04-09 05:17:00,52.7,45.7,29.80,West,270,0.0,0.0,77,0.00,BKN,,0.00,WeatherDisplay:10.37,2013-04-09 09:17:00,
2013-04-09 05:22:00,52.3,45.0,29.80,West,270,0.0,0.0,76,0.00,BKN,,0.00,WeatherDisplay:10.37,2013-04-09 09:22:00,
2013-04-09 05:27:00,52.3,45.3,29.83,North,0,0.0,0.0,77,0.00,BKN,,0.00,WeatherDisplay:10.37,2013-04-09 09:27:00,
2013-04-09 05:32:00,52.3,45.3,29.83,WSW,248,0.0,0.0,77,0.00,BKN,,0.00,WeatherDisplay:10.37,2013-04-09 09:32:00,
2013-04-09 05:37:00,52.0,45.0,29.83,WSW,248,0.0,0.0,77,0.00,BKN,,0.00,WeatherDisplay:10.37,2013-04-09 09:37:00,
2013-04-09 05:42:00,52.0,45.0,29.83,SW,225,0.0,0.0,77,0.00,BKN,,0.00,WeatherDisplay:10.37,2013-04-09 09:42:00,
2013-04-09 05:47:00,51.8,44.8,29.83,SSE,158,0.0,0.0,77,0.00,BKN,,0.00,WeatherDisplay:10.37,2013-04-09 09:47:00,
2013-04-09 05:52:00,52.0,45.3,29.83,SSE,158,0.0,0.0,78,0.00,BKN,,0.00,WeatherDisplay:10.37,2013-04-09 09:52:00,
2013-04-09 05:57:00,51.8,45.2,29.83,South,180,0.0,0.0,78,0.00,BKN,,0.00,WeatherDisplay:10.37,2013-04-09 09:57:00,
2013-04-09 06:02:00,51.6,45.0,29.83,SSW,202,0.0,0.0,78,0.00,BKN,,0.00,WeatherDisplay:10.37,2013-04-09 10:02:00,
2013-04-09 06:07:00,51.6,45.0,29.83,SSW,202,0.0,0.0,78,0.00,BKN,,0.00,WeatherDisplay:10.37,2013-04-09 10:07:00,
2013-04-09 06:12:00,51.6,45.0,29.83,SSW,202,0.0,0.0,78,0.00,BKN,,0.00,WeatherDisplay:10.37,2013-04-09 10:12:00,
2013-04-09 06:18:00,51.6,45.0,29.83,SW,225,0.0,0.0,78,0.00,BKN,,0.00,WeatherDisplay:10.37,2013-04-09 10:18:00,
2013-04-09 06:23:00,51.6,45.0,29.83,SW,225,0.0,0.2,78,0.00,BKN,,0.00,WeatherDisplay:10.37,2013-04-09 10:23:00,
2013-04-09 06:28:00,51.6,45.0,29.84,SW,225,0.0,0.2,78,0.00,BKN,,0.00,WeatherDisplay:10.37,2013-04-09 10:28:00,
2013-04-09 06:33:00,51.6,45.3,29.84,WSW,248,0.0,0.0,79,0.00,BKN,,0.00,WeatherDisplay:10.37,2013-04-09 10:33:00,
2013-04-09 06:38:00,51.4,45.1,29.84,WSW,248,0.0,0.0,79,0.00,BKN,,0.00,WeatherDisplay:10.37,2013-04-09 10:38:00,
2013-04-09 06:43:00,51.4,45.1,29.84,SSW,202,0.0,0.0,79,0.00,BKN,,0.00,WeatherDisplay:10.37,2013-04-09 10:43:00,
2013-04-09 06:48:00,51.6,45.3,29.85,SSW,202,0.0,0.1,79,0.00,BKN,,0.00,WeatherDisplay:10.37,2013-04-09 10:48:00,
2013-04-09 06:53:00,51.6,45.3,29.85,SSW,202,0.0,0.2,79,0.00,BKN,,0.00,WeatherDisplay:10.37,2013-04-09 10:53:00,
2013-04-09 06:59:00,51.6,45.3,29.85,South,180,2.3,2.3,79,0.00,BKN,,0.00,WeatherDisplay:10.37,2013-04-09 10:59:00,
2013-04-09 07:04:00,51.8,45.5,29.85,South,180,2.3,2.3,79,0.00,BKN,,0.00,WeatherDisplay:10.37,2013-04-09 11:04:00,
2013-04-09 07:09:00,52.0,45.7,29.83,South,180,2.3,2.3,79,0.00,BKN,,0.00,WeatherDisplay:10.37,2013-04-09 11:09:00,
2013-04-09 07:14:00,52.3,46.0,29.83,SW,225,2.3,2.3,79,0.00,BKN,,0.00,WeatherDisplay:10.37,2013-04-09 11:14:00,
2013-04-09 07:19:00,53.1,46.4,29.83,SW,225,2.3,2.3,78,0.00,BKN,,0.00,WeatherDisplay:10.37,2013-04-09 11:19:00,
2013-04-09 07:25:00,53.8,47.1,29.83,West,270,2.3,2.3,78,0.00,BKN,,0.00,WeatherDisplay:10.37,2013-04-09 11:25:00,
2013-04-09 07:30:00,54.1,47.4,29.85,WSW,248,2.4,2.4,78,0.00,BKN,,0.00,WeatherDisplay:10.37,2013-04-09 11:30:00,
2013-04-09 07:35:00,54.9,48.1,29.85,SW,225,2.3,2.3,78,0.00,BKN,,0.00,WeatherDisplay:10.37,2013-04-09 11:35:00,
2013-04-09 07:40:00,55.4,48.3,29.85,West,270,1.1,1.6,77,0.00,BKN,,0.00,WeatherDisplay:10.37,2013-04-09 11:40:00,
2013-04-09 07:45:00,56.1,49.0,29.85,SW,225,2.3,2.3,77,0.00,BKN,,0.00,WeatherDisplay:10.37,2013-04-09 11:45:00,
2013-04-09 07:50:00,56.8,49.4,29.82,WSW,248,1.4,1.5,76,0.00,BKN,,0.00,WeatherDisplay:10.37,2013-04-09 11:50:00,
2013-04-09 07:55:00,58.1,50.2,29.82,WSW,248,2.3,2.3,75,0.00,BKN,,0.00,WeatherDisplay:10.37,2013-04-09 11:55:00,
2013-04-09 08:00:00,59.0,50.7,29.82,WSW,248,2.8,2.8,74,0.00,BKN,,0.00,WeatherDisplay:10.37,2013-04-09 12:00:00,
2013-04-09 08:05:00,59.7,51.0,29.82,West,270,3.5,3.5,73,0.00,BKN,,0.00,WeatherDisplay:10.37,2013-04-09 12:05:00,
2013-04-09 08:10:00,60.6,51.2,29.85,West,270,3.5,3.5,71,0.00,BKN,,0.00,WeatherDisplay:10.37,2013-04-09 12:10:00,
2013-04-09 08:15:00,61.7,51.8,29.85,WSW,248,3.5,3.5,70,0.00,BKN,,0.00,WeatherDisplay:10.37,2013-04-09 12:15:00,
2013-04-09 08:20:00,62.8,52.5,29.85,West,270,3.9,3.9,69,0.00,BKN,,0.00,WeatherDisplay:10.37,2013-04-09 12:20:00,
2013-04-09 08:25:00,63.5,52.3,29.85,SW,225,3.5,3.5,67,0.00,BKN,,0.00,WeatherDisplay:10.37,2013-04-09 12:25:00,
2013-04-09 08:30:00,64.0,52.4,29.86,SW,225,4.6,4.6,66,0.00,BKN,,0.00,WeatherDisplay:10.37,2013-04-09 12:30:00,
2013-04-09 08:35:00,64.9,52.9,29.86,SW,225,3.5,3.5,65,0.00,BKN,,0.00,WeatherDisplay:10.37,2013-04-09 12:35:00,
2013-04-09 08:40:00,65.8,52.9,29.86,SW,225,3.7,3.7,63,0.00,BKN,,0.00,WeatherDisplay:10.37,2013-04-09 12:40:00,
2013-04-09 08:46:00,66.6,53.1,29.86,WSW,248,5.8,5.8,62,0.00,BKN,,0.00,WeatherDisplay:10.37,2013-04-09 12:46:00,
2013-04-09 08:51:00,66.9,53.0,29.86,West,270,4.6,4.6,61,0.00,BKN,,0.00,WeatherDisplay:10.37,2013-04-09 12:51:00,
2013-04-09 08:56:00,67.5,52.6,29.86,WSW,248,4.6,4.6,59,0.00,BKN,,0.00,WeatherDisplay:10.37,2013-04-09 12:56:00,
2013-04-09 09:01:00,67.8,52.5,29.86,South,180,4.6,4.6,58,0.00,BKN,,0.00,WeatherDisplay:10.37,2013-04-09 13:01:00,
2013-04-09 09:06:00,68.2,52.8,29.76,South,180,6.1,6.1,58,0.00,BKN,,0.00,WeatherDisplay:10.37,2013-04-09 13:06:00,
2013-04-09 09:11:00,68.4,53.0,29.76,West,270,4.6,4.6,58,0.00,BKN,,0.00,WeatherDisplay:10.37,2013-04-09 13:11:00,
2013-04-09 09:16:00,68.7,53.3,29.76,SW,225,3.5,3.5,58,0.00,BKN,,0.00,WeatherDisplay:10.37,2013-04-09 13:16:00,
2013-04-09 09:21:00,68.9,53.0,29.76,WSW,248,5.8,5.8,57,0.00,BKN,,0.00,WeatherDisplay:10.37,2013-04-09 13:21:00,
2013-04-09 09:26:00,69.3,53.4,29.85,WSW,248,4.6,4.6,57,0.00,BKN,,0.00,WeatherDisplay:10.37,2013-04-09 13:26:00,
2013-04-09 09:31:00,69.8,53.4,29.85,SW,225,3.7,3.7,56,0.00,BKN,,0.00,WeatherDisplay:10.37,2013-04-09 13:31:00,
2013-04-09 09:36:00,70.3,53.4,29.85,South,180,6.9,6.9,55,0.00,BKN,,0.00,WeatherDisplay:10.37,2013-04-09 13:36:00,
2013-04-09 09:41:00,70.7,52.7,29.85,West,270,6.9,6.9,53,0.00,BKN,,0.00,WeatherDisplay:10.37,2013-04-09 13:41:00,
2013-04-09 09:46:00,71.4,52.3,29.85,NW,315,11.5,11.5,51,0.00,BKN,,0.00,WeatherDisplay:10.37,2013-04-09 13:46:00,
2013-04-09 09:51:00,72.1,52.5,29.85,ENE,68,13.8,13.8,50,0.00,BKN,,0.00,WeatherDisplay:10.37,2013-04-09 13:51:00,
2013-04-09 09:56:00,72.9,53.1,29.85,WNW,292,10.4,10.4,50,0.00,BKN,,0.00,WeatherDisplay:10.37,2013-04-09 13:56:00,
2013-04-09 10:01:00,73.2,51.8,29.85,NW,315,15.0,15.0,47,0.00,BKN,,0.00,WeatherDisplay:10.37,2013-04-09 14:01:00,
2013-04-09 10:06:00,73.6,51.5,29.84,WNW,292,15.0,15.0,46,0.00,BKN,,0.00,WeatherDisplay:10.37,2013-04-09 14:06:00,
2013-04-09 10:11:00,73.9,51.8,29.84,West,270,10.4,10.4,46,0.00,BKN,,0.00,WeatherDisplay:10.37,2013-04-09 14:11:00,
2013-04-09 10:16:00,74.3,51.6,29.84,WNW,292,11.5,11.5,45,0.00,BKN,,0.00,WeatherDisplay:10.37,2013-04-09 14:16:00,
2013-04-09 10:21:00,74.5,50.5,29.84,WSW,248,11.5,11.5,43,0.00,BKN,,0.00,WeatherDisplay:10.37,2013-04-09 14:21:00,
2013-04-09 10:26:00,74.8,49.6,29.84,West,270,12.4,12.4,41,0.00,BKN,,0.00,WeatherDisplay:10.37,2013-04-09 14:26:00,
2013-04-09 10:31:00,75.4,50.7,29.84,WNW,292,16.1,16.1,42,0.00,BKN,,0.00,WeatherDisplay:10.37,2013-04-09 14:31:00,
2013-04-09 10:36:00,75.6,50.2,29.84,NW,315,9.2,9.2,41,0.00,BKN,,0.00,WeatherDisplay:10.37,2013-04-09 14:36:00,
2013-04-09 10:41:00,75.7,50.4,29.84,NW,315,9.2,9.2,41,0.00,BKN,,0.00,WeatherDisplay:10.37,2013-04-09 14:41:00,
2013-04-09 10:46:00,76.3,50.2,29.85,WSW,248,13.8,13.8,40,0.00,BKN,,0.00,WeatherDisplay:10.37,2013-04-09 14:46:00,
2013-04-09 10:51:00,76.5,49.7,29.85,WNW,292,15.0,15.0,39,0.00,BKN,,0.00,WeatherDisplay:10.37,2013-04-09 14:51:00,
2013-04-09 10:56:00,76.5,49.0,29.85,NW,315,16.3,16.3,38,0.00,BKN,,0.00,WeatherDisplay:10.37,2013-04-09 14:56:00,
2013-04-09 11:01:00,76.8,49.3,29.85,NW,315,19.6,19.6,38,0.00,BKN,,0.00,WeatherDisplay:10.37,2013-04-09 15:01:00,
2013-04-09 11:06:00,77.5,49.9,29.85,WNW,292,9.2,9.2,38,0.00,BKN,,0.00,WeatherDisplay:10.37,2013-04-09 15:06:00,
2013-04-09 11:11:00,77.5,49.9,29.85,NW,315,10.4,10.4,38,0.00,BKN,,0.00,WeatherDisplay:10.37,2013-04-09 15:11:00,
2013-04-09 11:16:00,77.9,49.5,29.85,NW,315,11.5,11.5,37,0.00,BKN,,0.00,WeatherDisplay:10.37,2013-04-09 15:16:00,
2013-04-09 11:21:00,77.9,49.5,29.85,NW,315,9.2,9.2,37,0.00,BKN,,0.00,WeatherDisplay:10.37,2013-04-09 15:21:00,
2013-04-09 11:26:00,77.9,48.8,29.85,WNW,292,13.8,13.8,36,0.00,BKN,,0.00,WeatherDisplay:10.37,2013-04-09 15:26:00,
2013-04-09 11:31:00,77.9,48.8,29.83,NW,315,9.2,9.2,36,0.00,BKN,,0.00,WeatherDisplay:10.37,2013-04-09 15:31:00,
2013-04-09 11:36:00,78.3,48.4,29.83,West,270,12.7,12.7,35,0.00,BKN,,0.00,WeatherDisplay:10.37,2013-04-09 15:36:00,
2013-04-09 11:41:00,78.1,47.4,29.83,West,270,12.7,12.7,34,0.00,BKN,,0.00,WeatherDisplay:10.37,2013-04-09 15:41:00,
2013-04-09 11:46:00,78.3,48.4,29.83,NW,315,9.2,9.2,35,0.00,BKN,,0.00,WeatherDisplay:10.37,2013-04-09 15:46:00,
2013-04-09 11:51:00,78.6,48.7,29.85,NNW,338,8.1,8.1,35,0.00,BKN,,0.00,WeatherDisplay:10.37,2013-04-09 15:51:00,
2013-04-09 11:56:00,79.0,48.2,29.85,NW,315,11.5,11.5,34,0.00,BKN,,0.00,WeatherDisplay:10.37,2013-04-09 15:56:00,
2013-04-09 12:01:00,79.2,48.4,29.85,NW,315,6.9,6.9,34,0.00,BKN,,0.00,WeatherDisplay:10.37,2013-04-09 16:01:00,
2013-04-09 12:06:00,79.5,48.7,29.85,West,270,8.1,8.1,34,0.00,BKN,,0.00,WeatherDisplay:10.37,2013-04-09 16:06:00,
2013-04-09 12:11:00,79.7,47.2,29.76,West,270,8.1,8.1,32,0.00,BKN,,0.00,WeatherDisplay:10.37,2013-04-09 16:11:00,
2013-04-09 12:16:00,79.9,46.5,29.76,SW,225,12.7,12.7,31,0.00,BKN,,0.00,WeatherDisplay:10.37,2013-04-09 16:16:00,
2013-04-09 12:21:00,80.1,47.5,29.76,West,270,6.9,6.9,32,0.00,BKN,,0.00,WeatherDisplay:10.37,2013-04-09 16:21:00,
2013-04-09 12:26:00,80.2,46.9,29.84,NW,315,9.2,9.2,31,0.00,BKN,,0.00,WeatherDisplay:10.37,2013-04-09 16:26:00,
2013-04-09 12:32:00,80.6,47.2,29.84,WSW,248,10.4,10.4,31,0.00,BKN,,0.00,WeatherDisplay:10.37,2013-04-09 16:32:00,
2013-04-09 12:37:00,80.8,47.3,29.84,WNW,292,4.6,4.6,31,0.00,BKN,,0.00,WeatherDisplay:10.37,2013-04-09 16:37:00,
2013-04-09 12:42:00,81.1,44.9,29.84,NNW,338,10.4,10.4,28,0.00,BKN,,0.00,WeatherDisplay:10.37,2013-04-09 16:42:00,
2013-04-09 12:47:00,81.0,43.8,29.85,WSW,248,9.2,9.2,27,0.00,BKN,,0.00,WeatherDisplay:10.37,2013-04-09 16:47:00,
2013-04-09 12:53:00,81.0,43.8,29.85,North,0,11.5,11.5,27,0.00,BKN,,0.00,WeatherDisplay:10.37,2013-04-09 16:53:00,
2013-04-09 12:58:00,81.1,44.9,29.85,NW,315,9.2,9.2,28,0.00,BKN,,0.00,WeatherDisplay:10.37,2013-04-09 16:58:00,
2013-04-09 13:03:00,81.0,43.8,29.85,West,270,11.5,11.5,27,0.00,BKN,,0.00,WeatherDisplay:10.37,2013-04-09 17:03:00,
2013-04-09 13:08:00,80.8,43.7,29.84,SSW,202,6.9,6.9,27,0.00,BKN,,0.00,WeatherDisplay:10.37,2013-04-09 17:08:00,
2013-04-09 13:13:00,80.6,42.5,29.84,WNW,292,9.2,9.2,26,0.00,BKN,,0.00,WeatherDisplay:10.37,2013-04-09 17:13:00,
2013-04-09 13:18:00,80.8,42.7,29.84,West,270,8.1,8.1,26,0.00,BKN,,0.00,WeatherDisplay:10.37,2013-04-09 17:18:00,
2013-04-09 13:23:00,80.8,42.7,29.84,NW,315,11.5,11.5,26,0.00,BKN,,0.00,WeatherDisplay:10.37,2013-04-09 17:23:00,
2013-04-09 13:28:00,80.8,42.7,29.84,NW,315,14.8,14.8,26,0.00,BKN,,0.00,WeatherDisplay:10.37,2013-04-09 17:28:00,
2013-04-09 13:33:00,81.1,43.0,29.84,NNW,338,12.7,12.7,26,0.00,BKN,,0.00,WeatherDisplay:10.37,2013-04-09 17:33:00,
2013-04-09 13:38:00,81.0,42.8,29.84,NW,315,10.4,10.4,26,0.00,BKN,,0.00,WeatherDisplay:10.37,2013-04-09 17:38:00,
2013-04-09 13:43:00,81.1,43.0,29.84,WSW,248,16.3,16.3,26,0.00,BKN,,0.00,WeatherDisplay:10.37,2013-04-09 17:43:00,
2013-04-09 13:48:00,81.3,42.1,29.84,NW,315,13.1,13.1,25,0.00,BKN,,0.00,WeatherDisplay:10.37,2013-04-09 17:48:00,
2013-04-09 13:53:00,81.3,43.1,29.84,West,270,10.4,10.4,26,0.00,BKN,,0.00,WeatherDisplay:10.37,2013-04-09 17:53:00,
2013-04-09 13:59:00,81.3,42.1,29.84,NW,315,15.6,15.6,25,0.00,BKN,,0.00,WeatherDisplay:10.37,2013-04-09 17:59:00,
2013-04-09 14:04:00,81.5,40.1,29.84,NW,315,11.5,11.5,23,0.00,BKN,,0.00,WeatherDisplay:10.37,2013-04-09 18:04:00,
2013-04-09 14:09:00,81.5,42.3,29.84,North,0,10.4,10.4,25,0.00,BKN,,0.00,WeatherDisplay:10.37,2013-04-09 18:09:00,
2013-04-09 14:14:00,81.5,40.1,29.84,West,270,9.2,9.2,23,0.00,BKN,,0.00,WeatherDisplay:10.37,2013-04-09 18:14:00,
2013-04-09 14:19:00,81.5,42.3,29.84,SW,225,6.9,7.0,25,0.00,BKN,,0.00,WeatherDisplay:10.37,2013-04-09 18:19:00,
2013-04-09 14:24:00,82.0,42.7,29.84,West,270,4.6,5.5,25,0.00,BKN,,0.00,WeatherDisplay:10.37,2013-04-09 18:24:00,
2013-04-09 14:29:00,82.2,40.7,29.82,WSW,248,13.8,13.8,23,0.00,BKN,,0.00,WeatherDisplay:10.37,2013-04-09 18:29:00,
2013-04-09 14:34:00,82.2,42.9,29.82,NNW,338,4.6,5.8,25,0.00,BKN,,0.00,WeatherDisplay:10.37,2013-04-09 18:34:00,
2013-04-09 14:39:00,82.6,39.9,29.82,West,270,11.5,11.5,22,0.00,BKN,,0.00,WeatherDisplay:10.37,2013-04-09 18:39:00,
2013-04-09 14:45:00,82.6,41.0,29.82,WNW,292,6.9,6.9,23,0.00,BKN,,0.00,WeatherDisplay:10.37,2013-04-09 18:45:00,
2013-04-09 14:50:00,82.6,41.0,29.83,NW,315,10.4,10.4,23,0.00,BKN,,0.00,WeatherDisplay:10.37,2013-04-09 18:50:00,
2013-04-09 14:55:00,82.6,41.0,29.83,West,270,8.1,8.1,23,0.00,BKN,,0.00,WeatherDisplay:10.37,2013-04-09 18:55:00,
2013-04-09 15:00:00,82.8,40.0,29.83,West,270,8.4,8.4,22,0.00,BKN,,0.00,WeatherDisplay:10.37,2013-04-09 19:00:00,
2013-04-09 15:05:00,82.8,41.2,29.83,WSW,248,5.8,5.8,23,0.00,BKN,,0.00,WeatherDisplay:10.37,2013-04-09 19:05:00,
2013-04-09 15:10:00,82.9,40.2,29.78,NW,315,5.8,5.8,22,0.00,BKN,,0.00,WeatherDisplay:10.37,2013-04-09 19:10:00,
2013-04-09 15:16:00,83.3,40.5,29.78,NNW,338,13.8,13.8,22,0.00,BKN,,0.00,WeatherDisplay:10.37,2013-04-09 19:16:00,
2013-04-09 15:21:00,83.1,41.5,29.78,West,270,3.5,5.1,23,0.00,BKN,,0.00,WeatherDisplay:10.37,2013-04-09 19:21:00,
2013-04-09 15:27:00,83.1,40.3,29.81,West,270,9.2,9.2,22,0.00,BKN,,0.00,WeatherDisplay:10.37,2013-04-09 19:27:00,
2013-04-09 15:32:00,83.3,41.6,29.81,NW,315,6.9,6.9,23,0.00,BKN,,0.00,WeatherDisplay:10.37,2013-04-09 19:32:00,
2013-04-09 15:37:00,83.5,41.8,29.81,West,270,5.5,5.5,23,0.00,BKN,,0.00,WeatherDisplay:10.37,2013-04-09 19:37:00,
2013-04-09 15:42:00,83.5,40.6,29.81,NW,315,10.7,10.7,22,0.00,BKN,,0.00,WeatherDisplay:10.37,2013-04-09 19:42:00,
2013-04-09 15:47:00,83.7,39.6,29.77,WNW,292,5.8,5.8,21,0.00,BKN,,0.00,WeatherDisplay:10.37,2013-04-09 19:47:00,
2013-04-09 15:52:00,83.5,40.6,29.77,NW,315,4.6,5.4,22,0.00,BKN,,0.00,WeatherDisplay:10.37,2013-04-09 19:52:00,
2013-04-09 15:58:00,83.1,39.1,29.77,West,270,8.1,8.1,21,0.00,BKN,,0.00,WeatherDisplay:10.37,2013-04-09 19:58:00,
2013-04-09 16:03:00,83.1,40.3,29.77,West,270,4.6,4.6,22,0.00,BKN,,0.00,WeatherDisplay:10.37,2013-04-09 20:03:00,
2013-04-09 16:08:00,83.1,39.1,29.81,SW,225,8.1,8.1,21,0.00,BKN,,0.00,WeatherDisplay:10.37,2013-04-09 20:08:00,
2013-04-09 16:13:00,83.3,40.5,29.81,SW,225,5.8,5.8,22,0.00,BKN,,0.00,WeatherDisplay:10.37,2013-04-09 20:13:00,
2013-04-09 16:18:00,83.3,41.6,29.81,West,270,4.6,4.8,23,0.00,BKN,,0.00,WeatherDisplay:10.37,2013-04-09 20:18:00,
2013-04-09 16:23:00,83.3,39.3,29.81,NW,315,10.4,10.4,21,0.00,BKN,,0.00,WeatherDisplay:10.37,2013-04-09 20:23:00,
2013-04-09 16:28:00,83.5,40.6,29.80,NW,315,4.6,4.7,22,0.00,BKN,,0.00,WeatherDisplay:10.37,2013-04-09 20:28:00,
2013-04-09 16:33:00,83.3,39.3,29.80,WNW,292,5.8,5.8,21,0.00,BKN,,0.00,WeatherDisplay:10.37,2013-04-09 20:33:00,
2013-04-09 16:38:00,83.1,39.1,29.80,West,270,5.1,5.1,21,0.00,BKN,,0.00,WeatherDisplay:10.37,2013-04-09 20:38:00,
2013-04-09 16:44:00,83.1,40.3,29.80,WSW,248,5.8,5.8,22,0.00,BKN,,0.00,WeatherDisplay:10.37,2013-04-09 20:44:00,
2013-04-09 16:49:00,82.9,39.0,29.80,NNW,338,6.9,6.9,21,0.00,BKN,,0.00,WeatherDisplay:10.37,2013-04-09 20:49:00,
2013-04-09 16:54:00,82.8,40.0,29.80,WSW,248,3.5,4.8,22,0.00,BKN,,0.00,WeatherDisplay:10.37,2013-04-09 20:54:00,
2013-04-09 16:59:00,82.8,38.8,29.80,WSW,248,4.7,4.7,21,0.00,BKN,,0.00,WeatherDisplay:10.37,2013-04-09 20:59:00,
2013-04-09 17:05:00,82.6,38.7,29.80,West,270,9.2,9.2,21,0.00,BKN,,0.00,WeatherDisplay:10.37,2013-04-09 21:05:00,
2013-04-09 17:10:00,82.6,38.7,29.76,WNW,292,4.6,5.2,21,0.00,BKN,,0.00,WeatherDisplay:10.37,2013-04-09 21:10:00,
2013-04-09 17:15:00,82.2,39.6,29.76,West,270,6.9,6.9,22,0.00,BKN,,0.00,WeatherDisplay:10.37,2013-04-09 21:15:00,
2013-04-09 17:20:00,82.0,38.2,29.76,WNW,292,4.7,4.7,21,0.00,BKN,,0.00,WeatherDisplay:10.37,2013-04-09 21:20:00,
2013-04-09 17:25:00,82.0,38.2,29.76,WSW,248,9.2,9.2,21,0.00,BKN,,0.00,WeatherDisplay:10.37,2013-04-09 21:25:00,
2013-04-09 17:30:00,82.0,38.2,29.81,WSW,248,3.5,3.9,21,0.00,BKN,,0.00,WeatherDisplay:10.37,2013-04-09 21:30:00,
2013-04-09 17:35:00,81.9,38.1,29.81,West,270,8.9,8.9,21,0.00,BKN,,0.00,WeatherDisplay:10.37,2013-04-09 21:35:00,
2013-04-09 17:40:00,81.9,38.1,29.81,WNW,292,9.2,9.2,21,0.00,BKN,,0.00,WeatherDisplay:10.37,2013-04-09 21:40:00,
2013-04-09 17:45:00,81.9,38.1,29.81,West,270,6.9,6.9,21,0.00,BKN,,0.00,WeatherDisplay:10.37,2013-04-09 21:45:00,
2013-04-09 17:50:00,81.7,37.9,29.81,WSW,248,3.0,3.3,21,0.00,BKN,,0.00,WeatherDisplay:10.37,2013-04-09 21:50:00,
2013-04-09 17:56:00,81.9,38.1,29.81,West,270,6.9,6.9,21,0.00,BKN,,0.00,WeatherDisplay:10.37,2013-04-09 21:56:00,
2013-04-09 18:01:00,81.7,37.9,29.81,West,270,8.1,8.1,21,0.00,BKN,,0.00,WeatherDisplay:10.37,2013-04-09 22:01:00,
2013-04-09 18:06:00,81.5,36.5,29.82,West,270,9.2,9.2,20,0.00,BKN,,0.00,WeatherDisplay:10.37,2013-04-09 22:06:00,
2013-04-09 18:11:00,81.7,37.9,29.82,West,270,5.8,5.8,21,0.00,BKN,,0.00,WeatherDisplay:10.37,2013-04-09 22:11:00,
2013-04-09 18:17:00,81.5,37.8,29.82,WNW,292,5.8,5.8,21,0.00,BKN,,0.00,WeatherDisplay:10.37,2013-04-09 22:17:00,
2013-04-09 18:22:00,81.5,37.8,29.82,WSW,248,5.8,5.8,21,0.00,BKN,,0.00,WeatherDisplay:10.37,2013-04-09 22:22:00,
2013-04-09 18:27:00,81.1,36.2,29.81,West,270,5.8,5.8,20,0.00,BKN,,0.00,WeatherDisplay:10.37,2013-04-09 22:27:00,
2013-04-09 18:32:00,81.1,36.2,29.81,NNW,338,5.8,5.8,20,0.00,BKN,,0.00,WeatherDisplay:10.37,2013-04-09 22:32:00,
2013-04-09 18:37:00,80.8,37.2,29.81,WNW,292,3.5,3.5,21,0.00,BKN,,0.00,WeatherDisplay:10.37,2013-04-09 22:37:00,
2013-04-09 18:42:00,80.6,38.2,29.81,WNW,292,2.3,2.6,22,0.00,BKN,,0.00,WeatherDisplay:10.37,2013-04-09 22:42:00,
2013-04-09 18:47:00,80.4,36.9,29.77,NW,315,3.5,3.5,21,0.00,BKN,,0.00,WeatherDisplay:10.37,2013-04-09 22:47:00,
2013-04-09 18:52:00,79.9,37.6,29.77,SW,225,3.5,3.5,22,0.00,BKN,,0.00,WeatherDisplay:10.37,2013-04-09 22:52:00,
2013-04-09 18:58:00,79.5,36.1,29.77,NW,315,7.4,7.4,21,0.00,BKN,,0.00,WeatherDisplay:10.37,2013-04-09 22:58:00,
2013-04-09 19:03:00,79.3,37.2,29.77,West,270,3.5,3.5,22,0.00,BKN,,0.00,WeatherDisplay:10.37,2013-04-09 23:03:00,
2013-04-09 19:08:00,79.0,36.9,29.82,SW,225,2.3,2.9,22,0.00,BKN,,0.00,WeatherDisplay:10.37,2013-04-09 23:08:00,
2013-04-09 19:13:00,78.6,37.7,29.82,West,270,2.3,2.3,23,0.00,BKN,,0.00,WeatherDisplay:10.37,2013-04-09 23:13:00,
2013-04-09 19:18:00,78.1,38.3,29.82,WSW,248,1.1,1.1,24,0.00,BKN,,0.00,WeatherDisplay:10.37,2013-04-09 23:18:00,
2013-04-09 19:23:00,77.4,37.7,29.82,SW,225,0.0,0.3,24,0.00,BKN,,0.00,WeatherDisplay:10.37,2013-04-09 23:23:00,
2013-04-09 19:28:00,76.8,38.3,29.78,SW,225,0.0,0.1,25,0.00,BKN,,0.00,WeatherDisplay:10.37,2013-04-09 23:28:00,
2013-04-09 19:33:00,76.3,39.8,29.78,SSW,202,2.3,2.3,27,0.00,BKN,,0.00,WeatherDisplay:10.37,2013-04-09 23:33:00,
2013-04-09 19:38:00,75.7,40.3,29.78,WSW,248,0.0,0.5,28,0.00,BKN,,0.00,WeatherDisplay:10.37,2013-04-09 23:38:00,
2013-04-09 19:43:00,75.0,38.8,29.78,West,270,0.0,0.3,27,0.00,BKN,,0.00,WeatherDisplay:10.37,2013-04-09 23:43:00,
2013-04-09 19:48:00,74.7,39.4,29.82,NW,315,0.0,0.0,28,0.00,BKN,,0.00,WeatherDisplay:10.37,2013-04-09 23:48:00,
2013-04-09 19:53:00,73.9,39.7,29.82,WNW,292,0.0,0.0,29,0.00,BKN,,0.00,WeatherDisplay:10.37,2013-04-09 23:53:00,
2013-04-09 19:58:00,73.4,40.1,29.82,South,180,0.0,0.0,30,0.00,BKN,,0.00,WeatherDisplay:10.37,2013-04-09 23:58:00,
2013-04-09 20:03:00,73.2,39.9,29.82,SSW,202,0.0,0.0,30,0.00,BKN,,0.00,WeatherDisplay:10.37,2013-04-10 00:03:00,
2013-04-09 20:08:00,72.5,40.1,29.83,SW,225,0.0,0.0,31,0.00,BKN,,0.00,WeatherDisplay:10.37,2013-04-10 00:08:00,
2013-04-09 20:13:00,72.0,40.5,29.83,SW,225,0.0,0.0,32,0.00,BKN,,0.00,WeatherDisplay:10.37,2013-04-10 00:13:00,
2013-04-09 20:18:00,71.8,40.3,29.83,South,180,0.0,0.0,32,0.00,BKN,,0.00,WeatherDisplay:10.37,2013-04-10 00:18:00,
2013-04-09 20:23:00,71.2,40.6,29.83,South,180,0.0,0.0,33,0.00,BKN,,0.00,WeatherDisplay:10.37,2013-04-10 00:23:00,
2013-04-09 20:28:00,70.9,40.3,29.83,West,270,0.0,0.1,33,0.00,BKN,,0.00,WeatherDisplay:10.37,2013-04-10 00:28:00,
2013-04-09 20:33:00,70.7,40.2,29.83,NW,315,0.0,0.1,33,0.00,BKN,,0.00,WeatherDisplay:10.37,2013-04-10 00:33:00,
2013-04-09 20:38:00,70.5,40.8,29.83,SSW,202,0.0,0.0,34,0.00,BKN,,0.00,WeatherDisplay:10.37,2013-04-10 00:38:00,
2013-04-09 20:43:00,70.2,40.5,29.83,SW,225,0.0,0.0,34,0.00,BKN,,0.00,WeatherDisplay:10.37,2013-04-10 00:43:00,
2013-04-09 20:48:00,69.8,40.2,29.85,WNW,292,0.0,0.0,34,0.00,BKN,,0.00,WeatherDisplay:10.37,2013-04-10 00:48:00,
2013-04-09 20:53:00,69.4,40.6,29.85,SW,225,0.0,0.0,35,0.00,BKN,,0.00,WeatherDisplay:10.37,2013-04-10 00:53:00,
2013-04-09 20:58:00,69.3,40.4,29.85,SSW,202,0.0,0.0,35,0.00,BKN,,0.00,WeatherDisplay:10.37,2013-04-10 00:58:00,
2013-04-09 21:03:00,69.1,41.0,29.85,SSW,202,0.0,0.0,36,0.00,BKN,,0.00,WeatherDisplay:10.37,2013-04-10 01:03:00,
2013-04-09 21:08:00,68.9,40.8,29.85,WSW,248,0.0,0.0,36,0.00,BKN,,0.00,WeatherDisplay:10.37,2013-04-10 01:08:00,
2013-04-09 21:13:00,68.5,40.5,29.85,WNW,292,0.0,0.0,36,0.00,BKN,,0.00,WeatherDisplay:10.37,2013-04-10 01:13:00,
2013-04-09 21:18:00,68.5,40.5,29.85,NW,315,0.0,0.0,36,0.00,BKN,,0.00,WeatherDisplay:10.37,2013-04-10 01:18:00,
2013-04-09 21:23:00,68.2,40.2,29.85,NW,315,0.0,0.0,36,0.00,BKN,,0.00,WeatherDisplay:10.37,2013-04-10 01:23:00,
2013-04-09 21:28:00,68.2,40.9,29.86,SW,225,0.0,0.0,37,0.00,BKN,,0.00,WeatherDisplay:10.37,2013-04-10 01:28:00,
2013-04-09 21:33:00,67.6,40.4,29.86,NW,315,0.0,0.0,37,0.00,BKN,,0.00,WeatherDisplay:10.37,2013-04-10 01:33:00,
2013-04-09 21:38:00,67.6,41.1,29.86,NW,315,0.0,0.0,38,0.00,BKN,,0.00,WeatherDisplay:10.37,2013-04-10 01:38:00,
2013-04-09 21:44:00,67.5,41.0,29.86,WSW,248,0.0,0.0,38,0.00,BKN,,0.00,WeatherDisplay:10.37,2013-04-10 01:44:00,
2013-04-09 21:49:00,67.5,41.6,29.86,West,270,0.0,0.0,39,0.00,BKN,,0.00,WeatherDisplay:10.37,2013-04-10 01:49:00,
2013-04-09 21:54:00,67.1,41.3,29.86,NW,315,0.0,0.0,39,0.00,BKN,,0.00,WeatherDisplay:10.37,2013-04-10 01:54:00,
2013-04-09 21:59:00,67.1,42.0,29.86,ESE,112,0.0,0.0,40,0.00,BKN,,0.00,WeatherDisplay:10.37,2013-04-10 01:59:00,
2013-04-09 22:04:00,66.9,42.4,29.86,SE,135,1.1,0.0,41,0.00,BKN,,0.00,WeatherDisplay:10.37,2013-04-10 02:04:00,
2013-04-09 22:09:00,66.9,42.4,29.84,South,180,0.0,0.2,41,0.00,BKN,,0.00,WeatherDisplay:10.37,2013-04-10 02:09:00,
2013-04-09 22:14:00,66.7,42.3,29.84,South,180,0.0,0.2,41,0.00,BKN,,0.00,WeatherDisplay:10.37,2013-04-10 02:14:00,
2013-04-09 22:19:00,66.7,42.9,29.84,South,180,0.0,0.0,42,0.00,BKN,,0.00,WeatherDisplay:10.37,2013-04-10 02:19:00,
2013-04-09 22:24:00,66.4,42.6,29.84,South,180,0.0,0.0,42,0.00,BKN,,0.00,WeatherDisplay:10.37,2013-04-10 02:24:00,
2013-04-09 22:29:00,66.4,43.2,29.83,South,180,0.0,0.0,43,0.00,BKN,,0.00,WeatherDisplay:10.37,2013-04-10 02:29:00,
2013-04-09 22:34:00,66.0,42.9,29.83,SSE,158,0.0,0.0,43,0.00,BKN,,0.00,WeatherDisplay:10.37,2013-04-10 02:34:00,
2013-04-09 22:39:00,66.0,42.9,29.83,NW,315,0.0,0.0,43,0.00,BKN,,0.00,WeatherDisplay:10.37,2013-04-10 02:39:00,
2013-04-09 22:44:00,65.7,42.5,29.83,NW,315,0.0,0.0,43,0.00,BKN,,0.00,WeatherDisplay:10.37,2013-04-10 02:44:00,
2013-04-09 22:49:00,65.5,43.0,29.81,South,180,0.0,0.0,44,0.00,BKN,,0.00,WeatherDisplay:10.37,2013-04-10 02:49:00,
2013-04-09 22:54:00,65.1,42.7,29.81,NNW,338,0.0,0.0,44,0.00,BKN,,0.00,WeatherDisplay:10.37,2013-04-10 02:54:00,
2013-04-09 22:59:00,65.1,42.7,29.81,NW,315,0.0,0.0,44,0.00,BKN,,0.00,WeatherDisplay:10.37,2013-04-10 02:59:00,
2013-04-09 23:04:00,64.8,42.3,29.81,NW,315,0.0,0.0,44,0.00,BKN,,0.00,WeatherDisplay:10.37,2013-04-10 03:04:00,
2013-04-09 23:09:00,64.6,42.7,29.75,NW,315,0.0,0.0,45,0.00,BKN,,0.00,WeatherDisplay:10.37,2013-04-10 03:09:00,
2013-04-09 23:14:00,64.6,42.7,29.75,NW,315,0.0,0.0,45,0.00,BKN,,0.00,WeatherDisplay:10.37,2013-04-10 03:14:00,
2013-04-09 23:19:00,64.2,43.0,29.75,NW,315,0.0,0.0,46,0.00,BKN,,0.00,WeatherDisplay:10.37,2013-04-10 03:19:00,
2013-04-09 23:24:00,64.2,43.0,29.75,West,270,0.0,0.0,46,0.00,BKN,,0.00,WeatherDisplay:10.37,2013-04-10 03:24:00,
2013-04-09 23:29:00,63.9,43.2,29.79,NW,315,0.0,0.0,47,0.00,BKN,,0.00,WeatherDisplay:10.37,2013-04-10 03:29:00,
2013-04-09 23:34:00,63.7,43.1,29.79,West,270,0.0,0.0,47,0.00,BKN,,0.00,WeatherDisplay:10.37,2013-04-10 03:34:00,
2013-04-09 23:39:00,63.5,42.9,29.79,NW,315,0.0,0.0,47,0.00,BKN,,0.00,WeatherDisplay:10.37,2013-04-10 03:39:00,
2013-04-09 23:44:00,63.5,42.9,29.79,WSW,248,0.0,0.0,47,0.00,BKN,,0.00,WeatherDisplay:10.37,2013-04-10 03:44:00,
2013-04-09 23:49:00,63.5,43.4,29.79,South,180,0.0,0.0,48,0.00,BKN,,0.00,WeatherDisplay:10.37,2013-04-10 03:49:00,
2013-04-09 23:54:00,63.1,43.7,29.79,SSW,202,0.0,0.0,49,0.00,BKN,,0.00,WeatherDisplay:10.37,2013-04-10 03:54:00,
2013-04-09 23:59:00,63.1,43.7,29.79,NW,315,0.0,0.0,49,0.00,BKN,,0.00,WeatherDisplay:10.37,2013-04-10 03:59:00,